Regional Weather Roundup
Issued by NWS

Home | Current Version | Previous Version | Text Only | Print | Product List | Glossary Off
Versions: 1 2 3 4 5 6 7 8 9 10 11 12 13 14 15 16 17 18 19 20 21 22 23 24

000
ASUS45 KCYS 212310
RWRWY

WYOMING REGIONAL WEATHER ROUNDUP
NATIONAL WEATHER SERVICE CHEYENNE WY
500 PM MDT TUE MAR 21 2017

NOTE:  "FAIR" INDICATES FEW OR NO CLOUDS BELOW 12,000 FEET
WITH NO SIGNIFICANT WEATHER AND/OR OBSTRUCTIONS TO VISIBILITY.

WYZ001-220000-
YELLOWSTONE NATIONAL PARK

CITY           SKY/WX    TMP DP  RH WIND       PRES   REMARKS
LK YELLOWSTONE   N/A     44  29  55 CALM      30.02F
W YELLOWSTONE  NOT AVBL

$$
WYZ002>013-054>058-071-098>099-220000-
NORTHERN WYOMING

CITY           SKY/WX    TMP DP  RH WIND       PRES   REMARKS
JACKSON        MOSUNNY   52  34  50 SW3       29.97F
CODY           PTSUNNY   47  37  68 E7        29.99F
GREYBULL       FAIR      52  39  61 CALM      29.97F
WORLAND        FAIR      51  42  71 VRB6      29.96F
SHERIDAN       CLOUDY    45  40  82 E3        30.02F
BUFFALO        CLOUDY    46  37  71 SE14      30.03F
GILLETTE       PTSUNNY   42  34  73 SE21      30.08F
HULETT         CLOUDY    34  32  93 NE3       30.13F
NEWCASTLE      FAIR      45  30  57 SE15G24   30.14F

$$
WYZ014>020-022>026-101>103-220000-
CENTRAL WYOMING

CITY           SKY/WX    TMP DP  RH WIND       PRES   REMARKS
BIG PINEY      CLOUDY    49  39  68 N6        30.03F
PINEDALE       CLOUDY    46  34  61 SE6       30.05S
DUBOIS         CLOUDY    46  36  66 CALM      30.01F
LANDER         FAIR      54  38  54 N6        29.96F
RIVERTON       FAIR      54  38  54 NE3       29.98F
CASPER         FAIR      52  39  61 SE15      30.05R
DOUGLAS        FAIR      56  35  45 SE18G26   30.03F

$$
WYZ021-027>030-104>119-220000-
SOUTHERN WYOMING

CITY           SKY/WX    TMP DP  RH WIND       PRES   REMARKS
EVANSTON       PTSUNNY   59  26  28 SW13      30.01F
KEMMERER         N/A     54  28  37 SW14G20   30.03F
FORT BRIDGER   CLOUDY    60  29  30 W17G24    30.05F
ROCK SPRINGS   CLOUDY    58  36  43 N10       30.01S
DIXON            N/A     65  21  18 SW22G31   30.05S
RAWLINS        PTSUNNY   61  26  26 SW25G35   30.02F
SARATOGA       MOCLDY    59  28  31 SW14G25   30.06F
LARAMIE        PTSUNNY   53  35  50 SE12      30.08F
CHEYENNE       FAIR      54  34  46 SE14      30.11F
TORRINGTON     CLOUDY    57  34  41 SE21      30.08R
PINE BLUFFS    CLOUDY    55  36  47 SE21G28   30.08F

$$




USA.gov is the U.S. government's official web portal to all federal, state and local government web resources and services.